Location: Unspecified
(20.0000°S, 0.0000°E)
Time: 11:07:39
(UTC+00:00)

BEESAT - Pass Details

Date: 24 August 2019
Orbit: 700 x 709 km, 98.6° (Epoch: 20 October)

Event Time Altitude Azimuth Distance (km) Brightness Sun altitude
Rises 03:59:08 0° 140° (SE) 3,100 ? -32.6°
Reaches altitude 10° 04:02:22 10° 117° (ESE) 2,174 ? -31.9°
Maximum altitude 04:05:02 15° 82° (E) 1,850 ? -31.2°
Drops below altitude 10° 04:07:42 10° 48° (NE) 2,161 ? -30.6°
Sets 04:10:53 0° 25° (NNE) 3,070 ? -29.9°
